timestamp,wind_dir_avg,wind_spd_avg,wind_spd_max_dir,wind_spd_gust,battery_voltage,lat,long
2021-10-19 00:04:00+00:00,99.0,3.13,107.0,5.75,12.65,47.59359,-54.27349
2021-10-19 00:14:01+00:00,105.0,2.99,136.0,5.67,12.57,47.59359,-54.27349
2021-10-19 00:24:01+00:00,120.0,6.91,122.0,10.31,12.57,47.59359,-54.27349
2021-10-19 00:34:01+00:00,116.0,7.26,117.0,10.47,12.57,47.59359,-54.27349
2021-10-19 00:44:01+00:00,118.0,6.26,120.0,10.26,12.57,47.59359,-54.27349
2021-10-19 00:54:01+00:00,105.0,3.84,95.0,5.89,12.57,47.59359,-54.27349
2021-10-19 01:04:01+00:00,107.0,4.94,107.0,7.69,12.57,47.59359,-54.27349
2021-10-19 01:14:01+00:00,124.0,6.34,122.0,11.12,12.57,47.59359,-54.27349
2021-10-19 01:24:01+00:00,100.0,3.89,111.0,6.19,12.57,47.59359,-54.27349
2021-10-19 01:34:01+00:00,106.0,3.77,147.0,6.5,12.57,47.59359,-54.27349
2021-10-19 01:44:01+00:00,100.0,3.15,130.0,5.84,12.57,47.59359,-54.27349
2021-10-19 01:54:01+00:00,101.0,4.0,83.0,5.95,12.57,47.59359,-54.27349
2021-10-19 02:04:01+00:00,111.0,3.49,118.0,5.11,12.57,47.59359,-54.27349
2021-10-19 02:14:00+00:00,113.0,4.13,126.0,6.44,12.57,47.59359,-54.27349
2021-10-19 02:24:00+00:00,102.0,4.19,65.0,6.73,12.57,47.59359,-54.27349
2021-10-19 02:34:00+00:00,123.0,6.7,126.0,8.48,12.57,47.59359,-54.27349
2021-10-19 02:44:00+00:00,105.0,5.4,121.0,9.22,12.57,47.59359,-54.27349
2021-10-19 02:54:00+00:00,115.0,5.26,128.0,7.83,12.57,47.59359,-54.27349
2021-10-19 03:04:00+00:00,124.0,7.47,124.0,11.36,12.57,47.59359,-54.27349
2021-10-19 03:14:00+00:00,118.0,7.19,122.0,9.75,12.57,47.59359,-54.27349
2021-10-19 03:24:00+00:00,124.0,8.38,126.0,12.46,12.57,47.59359,-54.27349
2021-10-19 03:34:00+00:00,115.0,7.89,122.0,13.6,12.57,47.59359,-54.27349
2021-10-19 03:44:00+00:00,121.0,10.67,125.0,12.6,12.57,47.59359,-54.27349
2021-10-19 03:54:00+00:00,121.0,10.04,124.0,12.01,12.57,47.59359,-54.27349
2021-10-19 04:04:00+00:00,118.0,5.73,110.0,8.44,12.57,47.59359,-54.27349
2021-10-19 04:14:01+00:00,131.0,6.44,139.0,7.94,12.57,47.59359,-54.27349
2021-10-19 04:24:01+00:00,128.0,8.05,124.0,10.14,12.57,47.59359,-54.27349
2021-10-19 04:34:01+00:00,127.0,8.4,125.0,10.84,12.57,47.59359,-54.27349
2021-10-19 04:44:01+00:00,134.0,4.91,136.0,6.21,12.57,47.59359,-54.27349
2021-10-19 04:54:01+00:00,139.0,6.76,131.0,10.07,12.57,47.59359,-54.27349
2021-10-19 05:04:01+00:00,144.0,12.46,140.0,15.98,12.57,47.59359,-54.27349
2021-10-19 05:14:01+00:00,136.0,12.13,137.0,14.74,12.49,47.59359,-54.27349
2021-10-19 05:24:01+00:00,143.0,11.25,137.0,14.72,12.49,47.59359,-54.27349
2021-10-19 05:34:01+00:00,152.0,12.07,142.0,14.93,12.49,47.59359,-54.27349
2021-10-19 05:44:01+00:00,150.0,13.81,141.0,15.74,12.49,47.59359,-54.27349
2021-10-19 05:54:01+00:00,148.0,13.14,141.0,16.16,12.49,47.59359,-54.27349
2021-10-19 06:04:01+00:00,158.0,11.55,142.0,15.62,12.49,47.59359,-54.27349
2021-10-19 06:14:01+00:00,158.0,11.99,143.0,15.82,12.49,47.59359,-54.27349
2021-10-19 06:24:01+00:00,162.0,12.62,168.0,14.63,12.49,47.59359,-54.27349
2021-10-19 06:34:01+00:00,162.0,13.74,153.0,16.84,12.49,47.59359,-54.27349
2021-10-19 06:44:01+00:00,161.0,14.26,148.0,16.8,12.49,47.59359,-54.27349
2021-10-19 06:54:01+00:00,161.0,13.94,147.0,16.39,12.49,47.59359,-54.27349
2021-10-19 07:04:01+00:00,171.0,12.48,170.0,14.62,12.49,47.59359,-54.27349
2021-10-19 07:14:00+00:00,172.0,11.74,170.0,13.9,12.49,47.59359,-54.27349
2021-10-19 07:24:00+00:00,170.0,11.87,169.0,13.88,12.49,47.59359,-54.27349
2021-10-19 07:34:00+00:00,168.0,10.23,179.0,11.7,12.49,47.59359,-54.27349
2021-10-19 07:44:00+00:00,174.0,11.07,168.0,12.53,12.49,47.59359,-54.27349
2021-10-19 07:54:00+00:00,173.0,8.88,195.0,10.79,12.49,47.59359,-54.27349
2021-10-19 08:04:00+00:00,166.0,7.63,165.0,8.46,12.49,47.59359,-54.27349
2021-10-19 08:14:00+00:00,171.0,8.5,167.0,11.91,12.49,47.59359,-54.27349
2021-10-19 08:24:00+00:00,188.0,7.44,201.0,9.16,12.49,47.59359,-54.27349
2021-10-19 08:34:00+00:00,200.0,8.08,206.0,10.3,12.49,47.59359,-54.27349
2021-10-19 08:44:00+00:00,206.0,7.33,208.0,8.45,12.49,47.59359,-54.27349
2021-10-19 08:54:00+00:00,212.0,8.05,211.0,8.87,12.49,47.59359,-54.27349
2021-10-19 09:04:00+00:00,205.0,6.72,204.0,8.04,12.49,47.59359,-54.27349
2021-10-19 09:14:01+00:00,216.0,7.22,219.0,8.08,12.41,47.59359,-54.27349
2021-10-19 09:24:01+00:00,238.0,8.41,242.0,9.88,12.41,47.59359,-54.27349
2021-10-19 09:34:01+00:00,239.0,8.81,249.0,10.14,12.41,47.59359,-54.27349
2021-10-19 09:44:01+00:00,243.0,10.12,245.0,11.44,12.41,47.59359,-54.27349
2021-10-19 09:54:01+00:00,243.0,8.29,251.0,10.41,12.41,47.59359,-54.27349
2021-10-19 10:04:01+00:00,243.0,8.01,242.0,9.19,12.41,47.59359,-54.27349
2021-10-19 10:14:01+00:00,243.0,9.05,243.0,10.5,12.41,47.59359,-54.27349
2021-10-19 10:24:01+00:00,244.0,7.79,248.0,9.02,12.41,47.59359,-54.27349
2021-10-19 10:34:01+00:00,243.0,8.15,244.0,9.19,12.41,47.59359,-54.27349
2021-10-19 10:44:01+00:00,248.0,7.95,253.0,9.35,12.41,47.59359,-54.27349
2021-10-19 10:54:01+00:00,251.0,7.35,249.0,8.04,12.41,47.59359,-54.27349
2021-10-19 11:04:01+00:00,253.0,6.83,252.0,7.59,12.41,47.59359,-54.27349
2021-10-19 11:14:01+00:00,253.0,6.26,257.0,7.04,13.92,47.59359,-54.27349
2021-10-19 11:24:01+00:00,251.0,6.8,258.0,8.32,13.92,47.59359,-54.27349
2021-10-19 11:34:01+00:00,246.0,6.46,250.0,8.22,13.92,47.59359,-54.27349
2021-10-19 11:44:01+00:00,235.0,6.67,238.0,7.52,13.92,47.59359,-54.27349
2021-10-19 11:54:01+00:00,240.0,6.18,237.0,7.11,13.92,47.59359,-54.27349
2021-10-19 12:04:01+00:00,235.0,7.05,240.0,8.78,13.92,47.59359,-54.27349
2021-10-19 12:14:01+00:00,241.0,7.06,245.0,8.14,14.32,47.59359,-54.27349
2021-10-19 12:24:01+00:00,241.0,7.54,236.0,9.58,14.32,47.59359,-54.27349
2021-10-19 12:34:01+00:00,235.0,6.72,238.0,8.05,14.32,47.59359,-54.27349
2021-10-19 12:44:01+00:00,241.0,5.88,239.0,6.83,14.32,47.59359,-54.27349
2021-10-19 12:54:01+00:00,244.0,7.13,241.0,8.81,14.32,47.59359,-54.27349
2021-10-19 13:04:01+00:00,240.0,8.56,238.0,9.83,14.32,47.59359,-54.27349
2021-10-19 14:14:01+00:00,251.0,8.42,256.0,10.18,13.68,47.59359,-54.27349
2021-10-19 14:24:01+00:00,257.0,8.16,262.0,10.71,13.68,47.59359,-54.27349
2021-10-19 14:34:01+00:00,256.0,5.95,262.0,8.15,13.68,47.59359,-54.27349
2021-10-19 14:44:01+00:00,248.0,7.2,249.0,8.59,13.68,47.59359,-54.27349
2021-10-19 14:54:01+00:00,239.0,5.19,236.0,5.83,13.68,47.59359,-54.27349
2021-10-19 15:04:01+00:00,236.0,6.08,239.0,6.89,13.68,47.59359,-54.27349
2021-10-19 15:14:01+00:00,235.0,5.85,235.0,6.69,13.84,47.59359,-54.27349
2021-10-19 15:24:01+00:00,260.0,7.85,261.0,10.46,13.84,47.59359,-54.27349
2021-10-19 15:34:01+00:00,210.0,6.91,209.0,8.01,13.84,47.59359,-54.27349
2021-10-19 15:44:01+00:00,210.0,7.35,210.0,8.43,13.84,47.59359,-54.27349
2021-10-19 15:54:01+00:00,210.0,7.91,209.0,8.65,13.84,47.59359,-54.27349
2021-10-19 16:04:01+00:00,203.0,8.98,202.0,10.02,13.84,47.59359,-54.27349
2021-10-19 16:14:01+00:00,209.0,6.98,203.0,7.82,14.32,47.59359,-54.27349
2021-10-19 16:24:01+00:00,209.0,7.12,204.0,7.71,14.32,47.59359,-54.27349
2021-10-19 16:34:01+00:00,207.0,6.92,208.0,7.55,14.32,47.59359,-54.27349
2021-10-19 16:44:01+00:00,206.0,6.54,209.0,7.4,14.32,47.59359,-54.27349
2021-10-19 16:54:01+00:00,212.0,5.9,207.0,6.7,14.32,47.59359,-54.27349
2021-10-19 17:04:01+00:00,204.0,7.07,202.0,7.75,14.32,47.59359,-54.27349
2021-10-19 17:14:01+00:00,207.0,6.91,207.0,7.47,14.32,47.59359,-54.27349
2021-10-19 17:24:01+00:00,200.0,7.3,197.0,8.04,14.32,47.59359,-54.27349
2021-10-19 17:34:01+00:00,202.0,6.53,200.0,7.57,14.32,47.59359,-54.27349
2021-10-19 17:44:01+00:00,204.0,6.94,197.0,7.63,14.32,47.59359,-54.27349
2021-10-19 17:54:01+00:00,204.0,7.99,204.0,9.37,14.32,47.59359,-54.27349
2021-10-19 18:04:01+00:00,201.0,6.57,205.0,7.24,14.32,47.59359,-54.27349
2021-10-19 18:14:01+00:00,204.0,7.04,208.0,7.64,14.24,47.59359,-54.27349
2021-10-19 18:24:01+00:00,205.0,7.58,203.0,8.77,14.24,47.59359,-54.27349
2021-10-19 18:34:01+00:00,195.0,6.38,196.0,7.37,14.24,47.59359,-54.27349
2021-10-19 18:44:01+00:00,199.0,6.39,202.0,8.01,14.24,47.59359,-54.27349
2021-10-19 18:54:01+00:00,209.0,6.88,208.0,7.59,14.24,47.59359,-54.27349
2021-10-19 19:04:01+00:00,210.0,7.11,213.0,7.86,14.24,47.59359,-54.27349
2021-10-19 19:14:01+00:00,211.0,6.69,212.0,7.2,14.0,47.59359,-54.27349
2021-10-19 19:24:01+00:00,210.0,5.98,210.0,6.76,14.0,47.59359,-54.27349
2021-10-19 19:34:01+00:00,203.0,5.93,208.0,6.67,14.0,47.59359,-54.27349
2021-10-19 19:44:01+00:00,209.0,5.84,209.0,6.37,14.0,47.59359,-54.27349
2021-10-19 19:54:01+00:00,197.0,4.97,208.0,5.54,14.0,47.59359,-54.27349
2021-10-19 20:04:01+00:00,188.0,4.56,204.0,5.3,14.0,47.59359,-54.27349
2021-10-19 20:14:01+00:00,197.0,4.86,198.0,6.34,13.76,47.59359,-54.27349
2021-10-19 20:24:01+00:00,179.0,4.31,174.0,4.84,13.76,47.59359,-54.27349
2021-10-19 20:34:01+00:00,199.0,4.12,212.0,4.88,13.76,47.59359,-54.27349
2021-10-19 20:44:01+00:00,188.0,3.7,200.0,4.42,13.76,47.59359,-54.27349
2021-10-19 20:54:01+00:00,192.0,3.12,210.0,3.97,13.76,47.59359,-54.27349
2021-10-19 21:04:01+00:00,195.0,3.57,210.0,4.61,13.76,47.59359,-54.27349
2021-10-19 21:14:01+00:00,191.0,3.84,211.0,4.73,13.05,47.59359,-54.27349
2021-10-19 21:24:01+00:00,189.0,4.14,211.0,4.87,13.05,47.59359,-54.27349
2021-10-19 21:34:01+00:00,187.0,3.98,192.0,4.32,13.05,47.59359,-54.27349
2021-10-19 21:44:01+00:00,182.0,3.95,177.0,4.3,13.05,47.59359,-54.27349
2021-10-19 21:54:01+00:00,190.0,3.89,209.0,4.42,13.05,47.59359,-54.27349
2021-10-19 22:04:01+00:00,185.0,3.64,163.0,4.02,13.05,47.59359,-54.27349
2021-10-19 22:14:01+00:00,196.0,3.58,212.0,4.27,12.65,47.59359,-54.27349
2021-10-19 22:24:01+00:00,196.0,3.1,210.0,3.71,12.65,47.59359,-54.27349
2021-10-19 22:34:01+00:00,215.0,2.36,224.0,2.96,12.65,47.59359,-54.27349
2021-10-19 22:44:01+00:00,209.0,2.16,223.0,2.56,12.65,47.59359,-54.27349
2021-10-19 22:54:01+00:00,184.0,2.56,206.0,3.0,12.65,47.59359,-54.27349
2021-10-19 23:04:01+00:00,208.0,2.21,216.0,2.6,12.65,47.59359,-54.27349
2021-10-19 23:14:01+00:00,193.0,2.17,191.0,2.44,12.65,47.59359,-54.27349
2021-10-19 23:24:01+00:00,174.0,2.79,178.0,3.04,12.65,47.59359,-54.27349
2021-10-19 23:34:01+00:00,163.0,2.11,162.0,2.45,12.65,47.59359,-54.27349
2021-10-19 23:44:01+00:00,114.0,1.49,111.0,1.76,12.65,47.59359,-54.27349
2021-10-19 23:54:01+00:00,122.0,1.35,124.0,1.5,12.65,47.59359,-54.27349
